Вернуться в каталог

SL-8 R/B

АктивенPO
NORAD 18161·ROCKET BODY·🇷🇺 Russia

Запущен Jul 6, 1987 с Plesetsk Cosmodrome

Loading…

Ближайшие Пролёты (ближайшие 24 часа)

TLE

СвежийSource: Space-Track

Эпоха: Sep 13, 2026, 22:45 UTC

1 18161U 87057B   26256.94809931  .00000153  00000-0  13840-3 0  9996
2 18161  82.9290  78.9400 0030150 222.4027 302.5132 13.77453962948593

Отслеживайте SL-8 R/B в реальном времени с AllMySat

Download on the App Store